Regional Weather Roundup
Issued by NWS State College, PA

Home | Current Version | Previous Version | Graphics & Text | Print | Product List | Glossary On
Versions: 1 2 3 4 5 6 7 8 9 10 11 12 13 14 15 16 17 18 19 20 21 22 23 24 25 26 27 28 29 30 31 32 33 34 35 36 37 38 39 40 41 42 43 44 45 46 47 48 49 50
000
ASUS41 KCTP 240003
RWRCTP

REGIONAL WEATHER ROUNDUP
NATIONAL WEATHER SERVICE STATE COLLEGE PA
800 PM EDT TUE MAY 23 2017

Note: "fair" indicates few or no clouds below 12,000 feet with no
significant weather and/or obstructions to visibility.

* = STATION THAT DOES NOT REPORT PRECIPITATION /E.G. RAIN...SNOW...ETC/
    THUNDER OR FOG.

PAZ002>004-007>009-013>016-020>023-029>032-240100-
WESTERN PENNSYLVANIA

CITY           SKY/WX    TMP DP  RH WIND       PRES   REMARKS
ERIE           PTCLDY    65  44  46 NE12      29.75S
MEADVILLE      PTCLDY    67  42  40 VRB3      29.76R
FRANKLIN*      PTCLDY    64  45  48 E6        29.77S
NEW CASTLE     FAIR      67  49  52 E5        29.75S
BEAVER COUNTY  CLEAR     68  48  49 SE3       29.74
BUTLER*        PTCLDY    66  48  52 SE8       29.76S
PITTSBURGH INT CLOUDY    68  50  52 SE9       29.74S
PITTSBURGH     CLOUDY    65  48  54 SE9       29.75S
INDIANA*       NOT AVBL
LATROBE        MOCLDY    63  50  63 VRB6      29.78S
WASHINGTON CO* CLOUDY    64  52  63 SE7       29.77R
$$

PAZ004>006-010>012-017>019-024>028-033>037-041-042-045-046-049>053-240100-
CENTRAL PENNSYLVANIA

CITY           SKY/WX    TMP DP  RH WIND       PRES   REMARKS
BRADFORD       PTCLDY    64  42  44 SE5       29.80S
DUBOIS         CLOUDY    62  42  47 SE5       29.79S
CLEARFIELD     CLOUDY    63  44  50 SE5       29.80F
JOHNSTOWN      CLOUDY    57  48  72 SE8       29.80F
ALTOONA        CLOUDY    61  49  64 S7        29.81F
STATE COLLEGE  CLEAR     63  46  55 SE5       29.81F
WILLIAMSPORT   CLOUDY    66  48  52 VRB3      29.79F
SELINSGROVE    CLOUDY    63  49  60 S6        29.82F
FT INDIANTOWN  CLOUDY    60  57  91 CALM      29.82F
CAPITAL CITY   CLOUDY    64  49  57 SE3       29.81F
HARRISBURG     CLOUDY    62  55  77 CALM      29.81F
YORK           CLOUDY    61  55  81 E3        29.82F
$$

PAZ038>040-043-044-047-048-054-055-060>062-067>071-240100-
EASTERN PENNSYLVANIA

CITY           SKY/WX    TMP DP  RH WIND       PRES   REMARKS
SCRANTON       CLOUDY    64  46  52 VRB3      29.82F
MOUNT POCONO   CLOUDY    56  48  74 CALM      29.86S
ALLENTOWN      CLOUDY    65  51  60 SE3       29.83F
QUAKERTOWN*    CLOUDY    63  55  77 CALM      29.84F
READING        CLOUDY    63  54  72 E3        29.82F
LANCASTER      CLOUDY    63  57  81 CALM      29.82F
COATESVILLE    CLOUDY    61  52  72 E6        29.84F
POTTSTOWN      CLOUDY    61  53  75 CALM      29.84F
BLUE BELL      CLOUDY    59  55  88 CALM      29.85S
DOYLESTOWN     CLOUDY    61  54  77 CALM      29.83F
WILLOW GROVE   NOT AVBL
NORTH PHILA    CLOUDY    64  51  62 SE3       29.85R
PHILADELPHIA   CLOUDY    64  51  62 E6        29.84S
$$




USA.gov is the U.S. government's official web portal to all federal, state and local government web resources and services.